Retour au catalogue

SHIYAN 27A

ActifScienceSSO
NORAD 63599·PAYLOAD·🇨🇳 China

Lancé Apr 18, 2025 depuis Taiyuan Satellite Launch Center

Loading…

Prochains Passages (prochaines 24 heures)

TLE

FraisSource: Space-Track

Époque: Sep 14, 2026, 14:10 UTC

1 63599U 25078A   26257.59040368 -.00000007  00000-0  52104-4 0  9995
2 63599  99.6941 263.4866 0000973 106.0783 254.0462 13.57250188 69661

Suivez SHIYAN 27A en temps réel avec AllMySat

Download on the App Store